רגע לפני שאתם עוזבים...
יש לנו ב
הצעה מיוחד עבורכם!
מספר שירותים שכדאי שתכירו
| לוחית | שעת חיפוש | ||||
| 18757604 | מזדה יפן | MAZDA CX-5 | 2025 | 01/09/2026 | 05:18:53 |
| 5172273 | איסוזו יפן | - | 2011 | 01/09/2026 | 05:18:52 |
| 4637113 | פיאט פולין | PANDA | 2011 | 01/09/2026 | 05:18:49 |
| 44214801 | טויוטה יפן | RAV 4 | 2018 | 01/09/2026 | 05:18:46 |
| 1546071 | סקודה צ'כיה | ROOMSTER | 2010 | 01/09/2026 | 05:18:45 |
| 9846368 | טויוטה ארהב" | - | 2008 | 01/09/2026 | 05:18:42 |
| 1044717 | הונדה ארהב" | - | 1995 | 01/09/2026 | 05:18:38 |
| 67754603 | מזדה תאילנד | MAZDA 2 | 2024 | 01/09/2026 | 05:18:35 |
| 3552280 | סקודה צ'כיה | NEW SUPERB | 2017 | 01/09/2026 | 05:18:32 |
| 19880103 | מרצדס בנץ גרמנ | - | 2023 | 01/09/2026 | 05:18:31 |
| 21939201 | רנו ספרד | CAPTUR | 2018 | 01/09/2026 | 05:18:28 |
| 1402931 | מיצובישי תאילנד | SPACE STAR | 2014 | 01/09/2026 | 05:18:28 |
| 62963501 | סקודה צ'כיה | OCTAVIA | 2019 | 01/09/2026 | 05:18:28 |
| 16940502 | סיאט ספרד | LEON | 2020 | 01/09/2026 | 05:18:26 |
| 4718454 | סיאט ספרד | LEON | 2015 | 01/09/2026 | 05:18:22 |
| 4839262 | יונדאי קוריאה הדרומית | GETZ | 2007 | 01/09/2026 | 05:18:18 |
| 1812974 | פיאג'יו סין | - | 2011 | 01/09/2026 | 05:18:16 |
| 54966002 | סקודה צ'כיה | KAMIQ | 2021 | 01/09/2026 | 05:18:09 |
| 92248401 | קיה סלובקיה | CEED | 2016 | 01/09/2026 | 05:18:05 |
| 6190454 | שברולט קוריאה הדרומית | ORLANDO | 2014 | 01/09/2026 | 05:18:05 |
| 3010378 | הונדה בריטניה | CIVIC | 2011 | 01/09/2026 | 05:18:02 |
| 7990032 | רובר בריטניה | RANGE ROVER | 2015 | 01/09/2026 | 05:18:02 |
| 1784639 | סובארו יפן | XV | 2016 | 01/09/2026 | 05:17:50 |
| 1024931 | מרצדס גרמניה | CLS350 | 2014 | 01/09/2026 | 05:17:50 |
| 85752802 | קיה קוריאה הדרומית | PICANTO | 2022 | 01/09/2026 | 05:17:44 |
| 4217918 | שברולט ארהב" | CAVALIER | 1997 | 01/09/2026 | 05:17:42 |
| 3499870 | טויוטה יפן | LAND CRUISER | 2010 | 01/09/2026 | 05:17:42 |
| 9223463 | מיצובישי יפן | PAJERO | 2008 | 01/09/2026 | 05:17:40 |
| 33892402 | ב מ וו ארהב" | X5 XDRIVE 45E | 2022 | 01/09/2026 | 05:17:36 |
| 9587438 | קיה קוריאה הדרומית | FORTE | 2016 | 01/09/2026 | 05:17:35 |
| 22756302 | סקודה צ'כיה | KAROQ | 2020 | 01/09/2026 | 05:17:34 |
| 2015179 | פיאג'ו איטליה | - | 2013 | 01/09/2026 | 05:17:34 |
| 75976604 | גילי סין | STARRAY EM-I | 2026 | 01/09/2026 | 05:17:31 |
| 88879001 | מרצדס בנץ אוסטריה | G500 | 2021 | 01/09/2026 | 05:17:30 |
| 55186003 | קיה קוריאה הדרומית | SELTOS | 2023 | 01/09/2026 | 05:17:30 |
| 45162401 | טויוטה יפן | LAND CRUISER | 2018 | 01/09/2026 | 05:17:29 |
| 64846901 | סיטרואן ספרד | BERLINGO | 2019 | 01/09/2026 | 05:17:28 |
| 4819733 | קיה קוריאה הדרומית | FORTE | 2015 | 01/09/2026 | 05:17:26 |
| 9682771 | אאודי גרמניה | - | 2010 | 01/09/2026 | 05:17:24 |
| 92814201 | פורשה סלובקיה | - | 2021 | 01/09/2026 | 05:17:23 |
| 75454701 | סוזוקי הונגריה | CROSSOVER | 2019 | 01/09/2026 | 05:17:20 |
| 8411832 | אופל פולין | ASTRA | 2014 | 01/09/2026 | 05:17:18 |
| 12172104 | ג'אקו סין | JAECOO 7 PHEV | 2025 | 01/09/2026 | 05:17:16 |
| 6343216 | ב מ וו ארהב" | X5 30D | 2011 | 01/09/2026 | 05:17:12 |
| 3015332 | שברולט ארהב" | TRAVERSE | 2014 | 01/09/2026 | 05:17:11 |
| 1218010 | טויוטה יפן | HILUX | 2001 | 01/09/2026 | 05:17:06 |
| 6352552 | טויוטה ארהב" | CAMRY | 2013 | 01/09/2026 | 05:17:02 |
| 9434175 | מרצדס בנץ גרמנ | - | 2013 | 01/09/2026 | 05:17:02 |
| 1014035 | ניסאן יפן | ALMERA | 2001 | 01/09/2026 | 05:17:00 |
| 7698709 | טויוטה בריטניה | AVENSIS | 2017 | 01/09/2026 | 05:16:59 |
| 81594003 | סיאט ספרד | LEON | 2024 | 01/09/2026 | 05:16:57 |
| 28551601 | סיטרואן ספרד | BERLINGO | 2018 | 01/09/2026 | 05:16:56 |
| 5964680 | פיג'ו ספרד | 301 | 2017 | 01/09/2026 | 05:16:54 |
| 8696766 | טויוטה יפן | PRIUS HYBRID | 2009 | 01/09/2026 | 05:16:52 |
| 7369067 | סקניה-שוודיה | - | 2009 | 01/09/2026 | 05:16:48 |
| 6185030 | טויוטה בריטניה | AURIS HYBRID | 2014 | 01/09/2026 | 05:16:47 |
| 5977176 | פולקסווגן גרמניה | GOLF | 2011 | 01/09/2026 | 05:16:46 |
| 68853502 | ימהה יפן | - | 2021 | 01/09/2026 | 05:16:46 |
| 52640304 | קיה קוריאה הדרומית | NIRO HEV | 2026 | 01/09/2026 | 05:16:44 |
| 4689608 | הונדה תאילנד | - | 2017 | 01/09/2026 | 05:16:44 |
| 88784401 | מרצדס בנץ גרמנ | - | 2020 | 01/09/2026 | 05:16:43 |
| 3737733 | קיה קוריאה הדרומית | PICANTO | 2015 | 01/09/2026 | 05:16:42 |
| 6256254 | שברולט מקסיקו | CAPTIVA SPORT | 2014 | 01/09/2026 | 05:16:39 |
| 9862710 | איסוזו יפן | IPPON | 2001 | 01/09/2026 | 05:16:38 |
| 4188112 | אאודי בלגיה | A1 | 2013 | 01/09/2026 | 05:16:33 |
| 1052671 | פולקסווגן ספרד | POLO | 2010 | 01/09/2026 | 05:16:31 |
| 9985260 | תעשית רכב נצרת | - | 1996 | 01/09/2026 | 05:16:31 |
| 22618203 | פיג'ו סלובקיה | 208 | 2023 | 01/09/2026 | 05:16:29 |
| 2572100 | מרצדס בנץ גרמנ | - | 1993 | 01/09/2026 | 05:16:28 |
| 8315370 | אאודי גרמניה | AUDI A3 | 2010 | 01/09/2026 | 05:16:25 |
| 4233070 | סוזוקי-יפן | SX4 | 2010 | 01/09/2026 | 05:16:24 |
| 55605803 | ימהה אינדונזיה | - | 2023 | 01/09/2026 | 05:16:23 |
| 21948003 | טויוטה צ'כיה | AYGO X | 2022 | 01/09/2026 | 05:16:21 |
| 29989604 | ב מ וו ארהב" | X3 XDRIVE30E | 2025 | 01/09/2026 | 05:16:20 |
| 28392304 | מרצדס בנץ גרמנ | - | 2025 | 01/09/2026 | 05:16:20 |
| 70178603 | בי ווי די סין | ATTO 3 | 2024 | 01/09/2026 | 05:16:18 |
| 88317001 | יונדאי טורקיה | I20 | 2020 | 01/09/2026 | 05:16:17 |
| 79068701 | הונדה תאילנד | - | 2020 | 01/09/2026 | 05:16:13 |
| 26409603 | סקודה צ'כיה | OCTAVIA | 2023 | 01/09/2026 | 05:16:12 |
| 5575285 | קיה סלובקיה | SPORTAGE | 2017 | 01/09/2026 | 05:16:11 |
| 61548502 | מרצדס בנץ גרמנ | - | 2022 | 01/09/2026 | 05:16:08 |
| 5134358 | קרייזלר מכסיקו | - | 2014 | 01/09/2026 | 05:16:08 |
| 3252227 | פיאט איטליה | פונטו 57 XS | 1998 | 01/09/2026 | 05:16:08 |
| 62100702 | יונדאי קוריאה הדרומית | IONIQ HYBRID | 2021 | 01/09/2026 | 05:16:03 |
| 17944803 | סובארו יפן | XV | 2022 | 01/09/2026 | 05:16:02 |
| 62086404 | טסלה סין | MODEL 3 | 2026 | 01/09/2026 | 05:16:02 |
| 6401174 | יונדאי הודו | I10 | 2011 | 01/09/2026 | 05:15:59 |
| 81172804 | יונדאי קוריאה הדרומית | KONA HYBRID | 2026 | 01/09/2026 | 05:15:58 |
| 43707603 | קיה קוריאה הדרומית | NIRO PLUS PHEV | 2023 | 01/09/2026 | 05:15:53 |
| 1326167 | פיאט איטליה | BRAVO 1.4 | 2009 | 01/09/2026 | 05:15:49 |
| 42925603 | יונדאי קוריאה הדרומית | VENUE | 2023 | 01/09/2026 | 05:15:48 |
| 14276504 | בי ווי די סין | SEAL U | 2024 | 01/09/2026 | 05:15:47 |
| 79529902 | מזדה תאילנד | MAZDA 2 | 2022 | 01/09/2026 | 05:15:46 |
| 51945704 | יונדאי קוריאה הדרומית | ELANTRA N | 2026 | 01/09/2026 | 05:15:43 |
| 81295201 | טויוטה טורקיה | C-HR HYBRID | 2019 | 01/09/2026 | 05:15:40 |
| 1623837 | טויוטה בריטניה | AURIS HYBRID | 2016 | 01/09/2026 | 05:15:40 |
| 1122375 | סיטרואן צרפת | C3 | 2011 | 01/09/2026 | 05:15:39 |
| 18325403 | סקיוול סין | ET5 | 2022 | 01/09/2026 | 05:15:38 |
| 46165302 | מרצדס הונגריה | AMG A45S | 2021 | 01/09/2026 | 05:15:38 |
| 9154401 | מ א ן גרמניה | - | 2007 | 01/09/2026 | 05:15:36 |
| 1746173 | מיצובישי יפן | GRANDIS | 2010 | 01/09/2026 | 05:15:36 |
| 1905336 | פיג'ו צרפת | 306 | 2002 | 01/09/2026 | 05:15:33 |
| 1025171 | פולקסווגן גרמניה | GOLF | 2010 | 01/09/2026 | 05:15:33 |
| 64707201 | סיטרואן ספרד | BERLINGO | 2019 | 01/09/2026 | 05:15:30 |
| 3406078 | וולבו בלגיה | S60 T5 | 2011 | 01/09/2026 | 05:15:28 |
| 1271630 | סובארו יפן | XV | 2014 | 01/09/2026 | 05:15:28 |
| 2663873 | יונדאי צ'כיה | I30 | 2010 | 01/09/2026 | 05:15:28 |
| 18988604 | קרייזלר מכסיקו | - | 2025 | 01/09/2026 | 05:15:23 |
| 80216802 | שברולט קוריאה הדרומית | SPARK | 2022 | 01/09/2026 | 05:15:21 |
| 1563876 | פורד בלגיה | MONDEO | 2013 | 01/09/2026 | 05:15:20 |
| 4382054 | סקודה צ'כיה | OCTAVIA | 2015 | 01/09/2026 | 05:15:18 |
| 60708002 | ג'יפ איטליה | COMPASS | 2021 | 01/09/2026 | 05:15:17 |
| 5057067 | דייהטסו יפן | .SIRION | 2008 | 01/09/2026 | 05:15:16 |
| 37744802 | פורד ארהב" | - | 2021 | 01/09/2026 | 05:15:16 |
| 1617538 | פולקסווגן גרמנ | - | 2015 | 01/09/2026 | 05:15:13 |
| 1038739 | דאף אנגליה | - | 2017 | 01/09/2026 | 05:15:09 |
| 1315730 | סובארו יפן | IMPREZA | 2014 | 01/09/2026 | 05:15:08 |
| 8368379 | טויוטה תאילנד | HILUX | 2012 | 01/09/2026 | 05:15:06 |
| 79363002 | מזדה תאילנד | MAZDA 2 | 2022 | 01/09/2026 | 05:15:04 |
| 1270037 | טויוטה יפן | RAV 4 HYBRID | 2016 | 01/09/2026 | 05:15:03 |
| 1809829 | רנו ספרד | מגאן NR 6.1 אוטו 5 ד | 1997 | 01/09/2026 | 05:15:00 |
| 17690503 | קיה קוריאה הדרומית | SELTOS | 2022 | 01/09/2026 | 05:14:59 |
| 92325101 | פורשה גרמניה | - | 2021 | 01/09/2026 | 05:14:58 |
| 4662370 | סאן יאנג טיואן | - | 2009 | 01/09/2026 | 05:14:58 |
| 71838701 | שברולט קוריאה הדרומית | SPARK | 2020 | 01/09/2026 | 05:14:54 |
| 38756301 | סקודה צ'כיה | KODIAQ | 2018 | 01/09/2026 | 05:14:53 |
| 31006203 | טסלה ארהב" | MODEL S | 2022 | 01/09/2026 | 05:14:52 |
| 45771704 | אופל צרפת | MOKKA | 2025 | 01/09/2026 | 05:14:52 |
| 90467701 | לינקולן ארהב" | - | 2017 | 01/09/2026 | 05:14:50 |
| 3798169 | מזדה יפן | MAZDA 3 SPORT | 2009 | 01/09/2026 | 05:14:48 |
| 4560972 | איסוזו תאילנד | PICK-UP | 2010 | 01/09/2026 | 05:14:47 |
| 5906870 | הונדה טורקיה | CIVIC | 2009 | 01/09/2026 | 05:14:45 |
| 6554023 | הונדה יפן | CR-V | 2000 | 01/09/2026 | 05:14:44 |
| 1235430 | סובארו יפן | XV | 2014 | 01/09/2026 | 05:14:43 |
| 2422780 | סקודה צ'כיה | OCTAVIA | 2017 | 01/09/2026 | 05:14:38 |
| 64707201 | סיטרואן ספרד | BERLINGO | 2019 | 01/09/2026 | 05:14:38 |
| 5679237 | מרצדס בנץ גרמנ | - | 2016 | 01/09/2026 | 05:14:35 |
| 66636602 | חרש אשדוד | - | 2021 | 01/09/2026 | 05:14:33 |
| 4259450 | פולקסווגן גרמניה | PASSAT | 2003 | 01/09/2026 | 05:14:30 |
| 8199712 | סיטרואן סלובקיה | C3 PICASSO | 2013 | 01/09/2026 | 05:14:30 |
| 83309304 | מרצדס גרמניה | AMG CLE53 4M | 2026 | 01/09/2026 | 05:14:28 |
| 12592303 | סאן יאנג טיואן | - | 2022 | 01/09/2026 | 05:14:28 |
| 1063760 | טויוטה יפן | COROLLA | 2006 | 01/09/2026 | 05:14:27 |
| 75426403 | טויוטה טורקיה | C-HR | 2024 | 01/09/2026 | 05:14:26 |
| 4252962 | מזדה יפן | MAZDA 6 | 2007 | 01/09/2026 | 05:14:23 |
| 6602853 | סיאט ספרד | IBIZA | 2014 | 01/09/2026 | 05:14:18 |
| 4227752 | וינגולד-גרורים | - | 2015 | 01/09/2026 | 05:14:18 |
| 9572264 | סוזוקי יפן | SWIFT | 2008 | 01/09/2026 | 05:14:16 |
| 1452073 | מיצובישי יפן | GRANDIS | 2010 | 01/09/2026 | 05:14:14 |
| 4236230 | אלפא רומיאו איטליה | ALFA GIULIETTA | 2014 | 01/09/2026 | 05:14:13 |
| 1431030 | סובארו יפן | IMPREZA | 2015 | 01/09/2026 | 05:14:10 |
| 33861602 | גלובל הנדסה | - | 2021 | 01/09/2026 | 05:14:10 |
| 14800104 | מזדה תאילנד | MAZDA 2 | 2025 | 01/09/2026 | 05:14:09 |
| 8443813 | יונדאי קוריאה הדרומית | VELOSTER | 2012 | 01/09/2026 | 05:14:08 |
| 59977704 | קופרה ספרד | FORMENTOR | 2026 | 01/09/2026 | 05:14:04 |
| 77529302 | טסלה סין | MODEL 3 | 2021 | 01/09/2026 | 05:14:03 |
| 1422111 | יונדאי טורקיה | I20 | 2013 | 01/09/2026 | 05:14:01 |
| 4664365 | סיטרואן צרפת | C4 | 2008 | 01/09/2026 | 05:13:58 |
| 16368501 | מיצובישי תאילנד | SPACE STAR | 2017 | 01/09/2026 | 05:13:55 |
| 3299165 | מיצובישי יפן | LANCER | 2008 | 01/09/2026 | 05:13:54 |
| 83833702 | סיאט ספרד | CUPRA | 2022 | 01/09/2026 | 05:13:53 |
| 60443902 | סיאט ספרד | IBIZA | 2021 | 01/09/2026 | 05:13:52 |
| 28590703 | סקניה-הולנד | - | 2023 | 01/09/2026 | 05:13:49 |
| 47838502 | קואנג יאנג טיו | - | 2021 | 01/09/2026 | 05:13:47 |
| 18596501 | רנו טורקיה | GRAND COUPE | 2017 | 01/09/2026 | 05:13:46 |
| 2836031 | יונדאי טורקיה | I20 | 2014 | 01/09/2026 | 05:13:43 |
| 30094501 | ב מ וו גרמניה | M240I | 2018 | 01/09/2026 | 05:13:42 |
| 79152001 | וולבו צרפת | - | 2021 | 01/09/2026 | 05:13:41 |
| 8165452 | הונדה בריטניה | CIVIC | 2014 | 01/09/2026 | 05:13:40 |
| 29699901 | מזדה יפן | CX-5 | 2019 | 01/09/2026 | 05:13:38 |
| 6225171 | מזדה יפן | MAZDA 3 SPORT | 2011 | 01/09/2026 | 05:13:38 |
| 4264357 | סיטרואן ספרד | BERLINGO | 2005 | 01/09/2026 | 05:13:35 |
| 68871303 | קיי גי מוביליט | REXTON | 2024 | 01/09/2026 | 05:13:35 |
| 1012189 | גולדן דרגון סי | - | 2017 | 01/09/2026 | 05:13:34 |
| 9386675 | טויוטה קנדה | - | 2013 | 01/09/2026 | 05:13:34 |
| 1809752 | טויוטה תאילנד | HILUX | 2013 | 01/09/2026 | 05:13:33 |
| 9975612 | וולבו בלגיה | - | 2013 | 01/09/2026 | 05:13:32 |
| 26774202 | קרייזלר ארהב" | WRANGLER UNLIMI | 2021 | 01/09/2026 | 05:13:32 |
| 1111638 | סוזוקי הונגריה | VITARA | 2016 | 01/09/2026 | 05:13:29 |
| 40632604 | קיה קוריאה הדרומית | PICANTO | 2025 | 01/09/2026 | 05:13:28 |
| 5030039 | פולאריס פולין | - | 2017 | 01/09/2026 | 05:13:26 |
| 56957001 | נגררי אשקלון | - | 2018 | 01/09/2026 | 05:13:25 |
| 6964079 | טויוטה צרפת | YARIS | 2012 | 01/09/2026 | 05:13:23 |
| 4585734 | אופל גרמניה | INSIGNIA | 2015 | 01/09/2026 | 05:13:20 |
| 61094801 | ב מ וו גרמניה | 118I | 2020 | 01/09/2026 | 05:13:18 |
| 74455902 | מזדה יפן | MAZDA 6 | 2021 | 01/09/2026 | 05:13:18 |
| 47966103 | מיצובישי יפן | OUTLANDER | 2023 | 01/09/2026 | 05:13:16 |
| 92207701 | פורד ארהב" | - | 2019 | 01/09/2026 | 05:13:16 |
| 92207701 | פורד ארהב" | - | 2019 | 01/09/2026 | 05:13:16 |
| 92207701 | פורד ארהב" | - | 2019 | 01/09/2026 | 05:13:15 |
| 16055003 | מרצדס ארהב" | GLE400D COUPE | 2022 | 01/09/2026 | 05:13:12 |
| 1028723 | סובארו יפן | אימפרזה 0061 TA | 1997 | 01/09/2026 | 05:13:12 |
| 32900104 | ב מ וו גרמניה | M3 COMPETITION | 2025 | 01/09/2026 | 05:13:11 |
| 92207701 | פורד ארהב" | - | 2019 | 01/09/2026 | 05:13:11 |
| 4660433 | קיה קוריאה הדרומית | PICANTO | 2015 | 01/09/2026 | 05:13:10 |
| 79158301 | רנו צרפת | - | 2020 | 01/09/2026 | 05:13:08 |
| 59408101 | ב מ וו גרמניה | X1 SDRIVE18I | 2019 | 01/09/2026 | 05:13:07 |
| 25971003 | איסוזו יפן | - | 2023 | 01/09/2026 | 05:13:07 |
| 4171731 | מיצובישי תאילנד | SPACE STAR | 2014 | 01/09/2026 | 05:13:06 |
| 7445011 | מזדה יפן | MAZDA 3 | 2014 | 01/09/2026 | 05:13:02 |